Theta_e
318 314 314 315 314 315 315 316 316 317 316 316 316 316 317 316 318 317 319 319 319 319 320 320 320 320 320 323 322 323 323 322 322 322 322 321 320 325 340 341 339 342 343 345
313 314 314 315 316 317 317 316 316 316 316 316 316 317 314 315 315 317 318 319 319 320 320 320 320 321 322 323 323 322 322 322 322 321 321 321 320 320 320 322 331 339 343 344
313 315 317 317 317 317 316 316 316 317 318 317 317 315 317 317 318 319 319 320 320 320 320 319 321 322 322 322 322 322 321 321 320 320 320 320 320 320 320 320 320 322 325 336
314 315 317 318 318 317 315 316 317 318 317 315 316 314 314 316 318 317 319 320 319 320 320 320 322 321 321 321 320 320 320 320 320 320 320 320 321 321 321 321 321 321 322 325
316 317 317 317 317 316 317 317 317 318 317 316 315 314 313 317 317 316 316 323 324 322 320 321 321 321 320 320 320 319 319 320 320 320 319 319 320 321 320 320 319 319 320 321
316 317 317 316 317 317 317 317 314 313 312 314 314 316 314 316 317 317 320 320 322 319 321 321 320 320 320 319 319 319 319 318 318 318 317 317 317 318 318 320 321 322 323 321
317 317 318 318 317 315 315 312 313 314 313 314 315 317 314 316 319 321 317 318 319 320 320 320 320 319 319 319 318 318 318 317 317 316 317 317 317 317 318 321 321 321 321 323
317 318 320 320 320 319 319 314 313 317 316 316 320 321 321 322 321 319 319 318 319 319 319 319 319 319 318 318 318 317 317 316 316 316 316 316 317 318 321 321 322 322 320 318
316 318 319 321 320 320 320 320 315 318 319 319 319 319 318 321 321 320 319 317 318 319 319 319 319 319 319 318 317 317 316 316 316 316 317 317 318 321 322 322 322 321 318 318
318 321 320 321 320 320 321 320 322 317 321 323 321 322 321 323 321 319 318 319 319 318 318 318 318 318 317 316 316 316 316 316 316 317 317 318 318 319 320 319 318 317 315 315
317 317 319 319 320 320 322 320 320 319 318 319 321 319 320 322 320 320 318 319 320 320 319 319 319 317 316 315 316 316 317 317 317 317 317 316 316 317 318 318 318 316 315 315
317 316 319 320 317 318 317 320 322 325 323 317 315 318 319 319 319 318 318 319 318 317 317 317 317 317 317 317 317 317 317 317 317 317 318 319 319 318 318 317 317 317 316 315
315 317 318 317 318 318 320 320 321 323 323 326 325 323 318 318 316 314 315 315 314 315 315 315 315 315 316 316 317 317 317 316 316 316 316 316 316 315 316 318 317 317 316 316
315 315 317 317 318 317 320 318 319 321 322 325 324 321 319 316 313 313 314 313 314 313 313 312 312 312 312 312 312 312 313 313 314 313 313 314 314 314 314 315 316 318 316 315
312 315 316 316 317 317 317 316 315 317 320 321 319 319 318 314 314 313 312 313 312 312 311 310 310 309 309 309 308 308 308 308 308 308 308 308 308 311 311 312 313 314 314 314
311 314 315 316 316 315 315 315 315 316 315 315 317 318 315 314 312 311 311 311 310 309 309 308 308 307 306 306 307 307 307 307 307 306 306 306 306 306 306 306 309 311 311 313
312 312 313 314 313 313 312 313 315 316 316 315 316 315 312 311 310 310 310 309 308 307 307 307 306 306 307 307 307 306 305 304 304 304 304 304 304 304 303 304 305 306 308 310
312 312 312 312 311 314 311 317 317 317 315 314 313 312 311 310 310 310 309 308 307 307 307 306 306 307 306 305 304 303 302 301 300 300 300 301 301 302 303 304 304 305 307 309
310 311 312 308 309 312 316 318 317 317 315 312 311 311 310 309 308 308 309 307 307 306 306 306 305 304 303 302 301 299 298 298 298 298 299 300 302 300 300 302 306 307 307 308
312 312 312 310 311 314 317 317 316 317 315 312 310 309 308 307 307 306 307 306 305 305 304 303 302 300 299 298 297 297 297 296 296 297 297 298 299 301 299 302 303 303 304 305
315 314 315 313 313 311 314 315 314 317 313 311 310 308 307 305 306 306 305 304 304 304 302 300 298 298 297 296 296 296 296 296 296 296 296 297 297 298 298 301 303 303 305 305
316 315 315 315 315 314 314 314 315 312 310 309 307 308 307 305 304 304 304 303 302 300 298 298 296 296 296 296 295 295 295 296 296 296 296 297 297 298 299 300 301 304 304 306
317 315 314 313 316 313 313 312 310 310 310 308 307 305 303 303 304 303 302 301 298 297 296 295 295 295 297 296 294 294 296 297 297 297 297 297 297 298 299 300 302 303 304 306
314 314 313 313 314 314 312 311 309 309 307 306 303 303 304 303 301 300 299 298 295 294 294 294 294 295 296 295 295 295 296 297 298 298 297 297 298 299 300 301 302 302 303 305
310 313 313 313 312 312 311 310 308 306 305 303 304 303 302 299 298 297 295 293 293 293 293 293 293 294 294 295 296 296 295 296 298 299 298 298 299 300 301 302 304 303 303 305
310 311 310 313 310 310 309 307 305 303 303 302 301 300 299 298 295 294 293 292 292 292 292 292 294 293 294 296 297 296 297 298 299 299 298 299 299 300 301 303 303 304 304 305
Wind_Speed
2 3 4 8 6 7 4 4 6 6 7 8 11 16 22 20 13 17 22 25 26 25 25 24 21 22 18 19 20 16 12 8 7 9 12 14 18 15 19 25 25 28 32 33
5 5 11 8 8 7 7 8 9 8 6 6 3 6 6 5 8 20 22 23 24 25 25 28 28 22 22 22 22 22 22 17 14 14 16 20 24 27 25 22 23 25 29 33
6 8 10 9 8 8 10 9 8 9 4 1 2 6 4 4 7 16 22 26 30 32 35 29 23 27 27 25 22 19 15 14 11 11 12 14 18 23 27 30 30 29 26 26
6 13 10 9 9 10 8 9 8 4 4 4 4 5 4 5 6 5 16 22 26 29 34 31 34 30 25 19 14 10 8 8 9 12 13 14 16 20 23 25 30 32 32 31
6 2 4 4 2 7 10 8 5 3 2 2 4 3 7 1 6 10 9 21 29 32 35 37 35 27 20 17 13 9 6 6 6 12 17 19 18 19 23 28 32 32 32 36
5 3 3 3 7 4 3 3 6 5 4 1 5 5 4 3 5 6 5 11 16 19 30 36 28 23 19 13 10 9 8 9 12 16 19 25 27 29 30 28 28 28 32 34
2 2 3 2 5 5 8 6 3 3 2 5 5 2 7 6 7 7 6 18 14 21 29 28 25 19 15 12 11 10 11 14 17 19 22 24 25 27 29 27 28 31 34 36
3 5 2 3 4 3 2 6 5 4 4 4 3 4 4 3 7 18 10 21 25 22 18 15 15 13 12 12 13 15 18 22 21 21 23 23 22 23 28 28 27 29 34 36
3 4 0 10 3 2 4 3 4 5 3 4 4 5 6 6 7 11 16 10 11 11 11 10 11 12 14 16 19 23 23 24 23 23 24 22 23 26 27 28 30 32 34 37
3 2 2 4 5 2 2 3 3 3 4 4 4 4 5 3 4 7 7 9 10 5 5 6 10 13 17 20 23 23 24 23 22 25 23 22 24 26 28 30 31 30 33 36
3 4 4 4 1 2 5 4 3 2 4 5 2 5 6 5 4 1 7 13 10 11 13 15 15 15 17 19 19 21 20 20 21 24 27 28 27 28 29 31 32 33 29 31
3 4 2 6 5 2 2 2 2 3 4 1 4 6 6 5 6 6 13 20 18 15 12 12 12 9 7 5 2 1 6 14 17 19 19 20 22 25 28 31 30 29 31 31
2 2 2 7 4 5 6 4 4 3 2 5 3 4 2 9 4 12 16 19 20 18 15 14 13 13 11 9 9 10 12 15 17 19 19 20 19 19 21 27 32 33 35 33
6 2 5 5 2 2 3 5 2 6 2 1 4 5 12 9 7 9 16 18 14 14 16 18 19 20 21 23 24 25 25 26 26 28 29 29 27 26 25 26 25 29 33 33
4 3 2 3 6 4 6 8 8 10 10 9 9 11 13 3 4 6 14 12 14 16 19 23 26 30 34 36 39 40 41 44 46 47 48 50 49 45 44 37 29 25 25 31
4 2 3 3 6 6 8 12 12 13 15 15 9 14 5 4 9 13 16 8 13 16 20 24 30 35 36 37 38 40 42 46 49 53 58 61 60 59 57 55 52 43 35 28
1 3 3 4 4 7 8 6 10 7 5 6 7 3 3 3 7 11 14 12 16 19 25 32 36 36 38 38 40 45 49 50 47 46 47 46 46 46 44 43 42 42 42 32
4 3 2 3 2 3 4 6 8 12 9 8 7 5 5 7 18 22 1 22 33 32 32 34 34 36 42 49 56 57 55 48 41 40 40 40 40 38 35 34 33 32 33 40
5 4 3 2 2 6 2 4 4 3 2 4 4 4 5 16 17 5 12 27 27 27 29 33 43 51 54 53 46 44 41 39 38 39 37 35 25 35 37 32 24 24 29 32
8 4 3 3 3 4 1 6 12 5 2 2 4 3 5 12 8 6 30 33 33 34 42 45 50 46 41 41 39 38 38 39 39 38 37 34 33 28 34 30 30 30 30 27
5 3 6 4 4 6 3 8 10 2 3 9 7 10 11 3 7 25 33 36 39 43 45 44 41 37 38 38 36 37 37 38 37 34 32 33 34 32 30 26 23 24 23 27
5 6 3 3 3 6 6 3 2 3 10 8 11 11 15 20 26 27 33 38 37 42 43 35 37 38 38 34 34 36 37 36 34 33 31 31 29 26 22 23 25 19 21 22
3 3 2 3 2 4 11 7 5 7 7 8 13 15 19 22 25 31 33 33 38 37 35 36 36 39 36 34 32 36 34 31 31 31 31 29 25 23 20 21 17 19 19 21
2 5 2 1 1 1 7 2 7 5 8 9 12 14 16 24 26 29 34 33 38 35 37 37 36 36 37 34 32 30 30 28 30 28 26 23 20 19 15 15 14 20 18 18
6 6 3 2 2 5 1 4 4 8 9 13 13 18 22 26 27 29 34 36 36 34 35 33 32 33 34 32 31 29 27 26 24 26 20 18 18 15 13 13 14 16 18 17
2 4 3 2 6 7 1 7 9 11 14 16 19 24 27 25 29 29 30 30 31 32 30 30 29 31 30 29 28 26 23 18 20 21 18 18 15 14 12 12 11 9 13 13
Wind_Direction
184 86 223 233 201 220 236 252 266 276 258 220 238 252 237 222 214 213 213 206 210 218 233 241 228 234 216 201 210 208 208 197 199 219 242 258 272 273 264 265 268 268 272 270
37 224 227 223 242 237 249 255 263 283 223 200 330 305 224 207 203 213 213 222 227 229 232 234 237 212 200 192 197 211 221 226 241 256 265 275 280 281 278 273 275 277 276 269
175 228 221 228 251 247 245 233 259 240 250 74 30 331 1 312 239 202 224 234 233 235 230 226 196 190 188 188 192 200 209 227 256 273 278 283 283 282 283 281 278 274 277 284
225 253 240 243 245 240 236 203 209 243 296 253 128 269 297 260 272 284 279 271 254 246 233 215 185 177 181 181 183 195 214 237 253 275 283 287 293 299 301 297 292 285 279 278
247 64 357 274 200 295 225 231 229 210 204 57 333 90 274 261 308 283 295 313 291 267 230 204 178 174 174 174 177 197 216 218 259 283 292 299 301 297 296 297 300 297 290 285
232 261 228 229 285 256 219 179 46 50 102 311 261 148 266 270 270 289 319 343 320 249 194 164 162 164 167 177 203 222 222 244 268 283 292 297 293 295 299 298 297 301 302 301
336 275 258 231 325 5 55 53 5 327 327 214 229 324 234 294 325 283 142 85 100 151 145 151 157 165 175 190 206 228 252 270 281 285 285 281 284 290 288 288 293 296 302 304
135 316 115 6 61 346 318 133 148 214 213 256 344 225 249 90 359 35 106 118 129 140 148 162 171 184 202 222 239 258 277 286 276 272 273 273 273 276 278 280 280 287 297 304
197 248 9 70 73 66 326 59 200 113 1 79 252 284 344 10 51 36 52 67 128 152 173 198 217 231 253 259 269 271 270 253 257 263 262 259 270 266 264 271 278 283 292 296
241 257 6 14 28 130 116 288 20 18 158 213 271 228 210 46 33 13 50 43 10 341 290 270 262 260 259 263 269 265 247 255 257 257 262 264 269 267 269 275 282 287 297 302
104 107 289 48 137 282 13 334 360 92 139 174 189 245 183 128 123 344 310 328 325 310 302 306 302 315 293 276 271 256 247 249 256 268 269 266 268 273 275 278 283 289 295 301
330 125 148 239 258 253 101 360 111 176 270 254 158 261 279 22 336 316 325 328 348 50 50 50 60 52 54 48 55 350 268 256 258 262 262 266 272 275 277 283 283 285 291 298
340 38 42 339 10 15 85 82 109 85 160 212 238 270 338 318 314 9 63 39 37 58 41 30 19 18 9 355 334 314 294 282 273 275 270 265 267 271 279 280 285 286 289 292
84 113 158 194 182 200 289 343 184 168 200 197 238 272 291 323 47 18 38 23 41 32 17 3 352 344 334 325 318 310 303 300 297 295 293 293 288 287 285 275 278 281 284 286
95 170 338 301 297 304 279 274 258 236 220 219 244 233 253 191 65 22 18 39 23 6 352 345 339 332 326 321 316 310 305 302 300 299 296 294 291 287 285 280 277 279 289 289
356 162 87 285 282 307 307 275 267 262 251 255 247 255 25 58 25 8 7 37 12 358 345 335 326 322 319 315 309 305 302 301 300 296 296 295 293 287 284 282 280 275 277 292
98 109 84 254 18 339 299 247 249 246 281 228 236 97 2 357 360 338 355 16 357 340 330 326 323 316 311 308 304 302 302 301 297 292 290 288 286 287 287 284 282 275 273 276
154 104 105 270 353 224 233 349 98 96 60 49 61 43 33 350 331 321 18 354 336 329 323 317 311 307 306 305 305 305 301 300 295 292 289 287 287 285 282 284 280 269 265 260
163 124 152 189 217 287 33 24 12 9 111 30 58 7 343 340 326 306 341 329 325 318 311 309 308 309 307 306 309 309 305 300 298 294 293 293 280 289 287 285 280 273 261 258
161 119 124 173 197 237 209 348 335 348 202 335 24 328 321 354 347 298 327 326 319 313 313 315 313 312 313 312 310 307 304 302 300 298 295 293 294 282 288 284 276 275 269 272
151 158 208 193 219 281 299 316 316 179 263 335 359 2 345 325 286 312 318 315 314 315 317 318 316 309 309 314 317 312 311 305 308 307 297 291 292 290 286 284 278 276 270 260
178 173 195 187 215 254 350 19 96 298 324 348 356 359 342 329 325 319 315 318 317 318 321 316 313 317 323 326 324 316 310 314 312 310 307 300 298 293 284 278 275 269 265 259
199 188 174 217 242 99 69 70 11 317 325 11 360 349 337 329 325 322 319 316 319 321 316 324 326 325 326 328 324 315 319 322 319 311 306 303 301 296 283 282 269 263 259 253
349 133 197 210 79 186 140 38 326 10 26 16 357 352 339 333 329 320 318 320 321 323 328 332 330 328 326 330 328 324 322 323 322 315 307 305 300 302 289 283 272 256 259 246
220 170 187 219 135 167 245 292 72 49 31 7 5 351 345 338 332 327 323 326 325 330 331 330 329 327 328 332 331 330 326 317 317 321 314 312 311 312 294 293 269 252 238 233
235 178 141 178 170 199 7 86 79 52 36 16 5 355 348 341 333 335 330 330 333 330 332 332 332 333 334 336 339 343 338 330 331 320 326 323 315 317 297 319 275 248 237 234